,,,PA_Meas_PMT16A,,PR_Meas_QMR101_102,,RH_Meas_QMH101,,SR_Meas_QMS101,,TA_Meas_QMH101,,GenWind,,GenWind,
date,time,status,PA,status,PR,status,RH,status,SR,status,TA,status,DirAvg,status,SpdAvg,
2010-07-07, 00:00:04,VALID,1004.87,VALID,0,VALID,102.143,VALID,0,VALID,24.2857,VALID,198,VALID,0,
2010-07-07, 00:01:04,VALID,1004.87,VALID,0,VALID,102.151,VALID,0,VALID,24.2662,VALID,198,VALID,0,
2010-07-07, 00:02:04,VALID,1004.85,VALID,0,VALID,102.181,VALID,0,VALID,24.2662,VALID,198,VALID,0,
2010-07-07, 00:03:04,VALID,1004.84,VALID,0,VALID,102.181,VALID,0,VALID,24.2875,VALID,198,VALID,0,
2010-07-07, 00:04:04,VALID,1004.85,VALID,0,VALID,102.189,VALID,0.100563,VALID,24.2468,VALID,198,VALID,0,
2010-07-07, 00:05:04,VALID,1004.81,VALID,0,VALID,102.242,VALID,0,VALID,24.2273,VALID,198,VALID,0,
2010-07-07, 00:06:04,VALID,1004.8,VALID,0,VALID,102.28,VALID,0,VALID,24.2273,VALID,198,VALID,0,
2010-07-07, 00:07:04,VALID,1004.77,VALID,0,VALID,102.28,VALID,0,VALID,24.1689,VALID,198,VALID,0,
2010-07-07, 00:08:04,VALID,1004.76,VALID,0,VALID,102.258,VALID,0,VALID,24.13,VALID,199,VALID,0,
2010-07-07, 00:09:04,VALID,1004.79,VALID,0,VALID,102.303,VALID,0,VALID,24.13,VALID,199,VALID,0,
2010-07-07, 00:10:04,VALID,1004.76,VALID,0,VALID,102.334,VALID,0.100563,VALID,24.13,VALID,199,VALID,0,
2010-07-07, 00:11:04,VALID,1004.76,VALID,0,VALID,102.357,VALID,0,VALID,24.1105,VALID,199,VALID,0,
2010-07-07, 00:12:04,VALID,1004.76,VALID,0,VALID,102.357,VALID,0.100563,VALID,24.091,VALID,199,VALID,0,
2010-07-07, 00:13:04,VALID,1004.76,VALID,0,VALID,102.387,VALID,0,VALID,24.0521,VALID,199,VALID,0,
2010-07-07, 00:14:04,VALID,1004.76,VALID,0,VALID,102.38,VALID,0,VALID,24.0521,VALID,341,VALID,0.567187,
2010-07-07, 00:15:04,VALID,1004.73,VALID,0,VALID,102.41,VALID,0,VALID,24.0326,VALID,343,VALID,0.80625,
2010-07-07, 00:16:04,VALID,1004.71,VALID,0,VALID,102.41,VALID,0,VALID,24.0539,VALID,321,VALID,0.39375,
2010-07-07, 00:17:04,VALID,1004.7,VALID,0,VALID,102.425,VALID,0,VALID,24.0521,VALID,337,VALID,0.703125,
2010-07-07, 00:18:04,VALID,1004.69,VALID,0,VALID,102.425,VALID,0,VALID,24.0326,VALID,351,VALID,0.0828125,
2010-07-07, 00:19:04,VALID,1004.66,VALID,0,VALID,102.41,VALID,0,VALID,24.0326,VALID,351,VALID,0,
2010-07-07, 00:20:04,VALID,1004.64,VALID,0,VALID,102.402,VALID,0,VALID,24.0521,VALID,351,VALID,0.325781,
2010-07-07, 00:21:04,VALID,1004.63,VALID,0,VALID,102.418,VALID,0,VALID,24.0326,VALID,351,VALID,0,
2010-07-07, 00:22:04,VALID,1004.61,VALID,0,VALID,102.395,VALID,0,VALID,24.0326,VALID,351,VALID,0.00078125,
2010-07-07, 00:23:04,VALID,1004.61,VALID,0,VALID,102.387,VALID,0,VALID,24.0326,VALID,351,VALID,0.377734,
2010-07-07, 00:24:04,VALID,1004.59,VALID,0,VALID,102.395,VALID,0,VALID,24.0132,VALID,351,VALID,0.517578,
2010-07-07, 00:25:04,VALID,1004.59,VALID,0,VALID,102.395,VALID,0,VALID,24.0326,VALID,351,VALID,0.0214844,
2010-07-07, 00:26:04,VALID,1004.55,VALID,0,VALID,102.395,VALID,0,VALID,24.0326,VALID,351,VALID,0,
2010-07-07, 00:27:04,VALID,1004.53,VALID,0,VALID,102.418,VALID,0,VALID,24.0521,VALID,351,VALID,0,
2010-07-07, 00:28:04,VALID,1004.52,VALID,0,VALID,102.41,VALID,0,VALID,24.0521,VALID,351,VALID,0,
2010-07-07, 00:29:04,VALID,1004.53,VALID,0,VALID,102.433,VALID,0,VALID,24.0308,VALID,351,VALID,0,
2010-07-07, 00:30:04,VALID,1004.51,VALID,0,VALID,102.418,VALID,0,VALID,24.0716,VALID,351,VALID,0.267578,
2010-07-07, 00:31:04,VALID,1004.52,VALID,0,VALID,102.418,VALID,0,VALID,24.091,VALID,351,VALID,0.475391,
2010-07-07, 00:32:04,VALID,1004.54,VALID,0,VALID,102.456,VALID,0,VALID,24.0521,VALID,351,VALID,0.386328,
2010-07-07, 00:33:04,VALID,1004.54,VALID,0,VALID,102.441,VALID,0,VALID,24.0326,VALID,351,VALID,0.545703,
2010-07-07, 00:34:04,VALID,1004.55,VALID,0,VALID,102.402,VALID,0,VALID,23.9937,VALID,351,VALID,0.237109,
2010-07-07, 00:35:04,VALID,1004.54,VALID,0,VALID,102.395,VALID,0,VALID,23.9548,VALID,351,VALID,0.319922,
2010-07-07, 00:36:04,VALID,1004.55,VALID,0,VALID,102.395,VALID,0.100563,VALID,23.9548,VALID,351,VALID,0,
2010-07-07, 00:37:04,VALID,1004.57,VALID,0,VALID,102.433,VALID,0,VALID,23.9353,VALID,351,VALID,0,
2010-07-07, 00:38:04,VALID,1004.57,VALID,0,VALID,102.425,VALID,0,VALID,23.9159,VALID,351,VALID,0,
2010-07-07, 00:39:04,VALID,1004.55,VALID,0,VALID,102.441,VALID,0.100563,VALID,23.8964,VALID,351,VALID,0,
2010-07-07, 00:40:04,VALID,1004.6,VALID,0,VALID,102.463,VALID,0,VALID,23.8964,VALID,351,VALID,0,
2010-07-07, 00:41:04,VALID,1004.58,VALID,0,VALID,102.456,VALID,0,VALID,23.8769,VALID,351,VALID,0,
2010-07-07, 00:42:04,VALID,1004.56,VALID,0,VALID,102.486,VALID,0.100563,VALID,23.8769,VALID,351,VALID,0,
2010-07-07, 00:43:04,VALID,1004.56,VALID,0,VALID,102.479,VALID,0,VALID,23.8362,VALID,351,VALID,0,
2010-07-07, 00:44:04,VALID,1004.55,VALID,0,VALID,102.471,VALID,0,VALID,23.838,VALID,351,VALID,0,
2010-07-07, 00:45:04,VALID,1004.57,VALID,0,VALID,102.486,VALID,0,VALID,23.838,VALID,351,VALID,0,
2010-07-07, 00:46:04,VALID,1004.53,VALID,0,VALID,102.486,VALID,0,VALID,23.8167,VALID,351,VALID,0,
2010-07-07, 00:47:04,VALID,1004.57,VALID,0,VALID,102.486,VALID,0,VALID,23.7991,VALID,351,VALID,0,
2010-07-07, 00:48:04,VALID,1004.59,VALID,0,VALID,102.502,VALID,0,VALID,23.7991,VALID,351,VALID,0.410937,
2010-07-07, 00:49:04,VALID,1004.61,VALID,0,VALID,102.486,VALID,0,VALID,23.7991,VALID,351,VALID,0.352344,
2010-07-07, 00:50:04,VALID,1004.61,VALID,0,VALID,102.525,VALID,0,VALID,23.7796,VALID,351,VALID,0.0382813,
2010-07-07, 00:51:04,VALID,1004.65,VALID,0,VALID,102.517,VALID,0,VALID,23.7407,VALID,351,VALID,0,
2010-07-07, 00:52:04,VALID,1004.63,VALID,0,VALID,102.525,VALID,0,VALID,23.7212,VALID,351,VALID,0,
2010-07-07, 00:53:04,VALID,1004.67,VALID,0,VALID,102.525,VALID,0,VALID,23.7017,VALID,351,VALID,0.0503906,
2010-07-07, 00:54:04,VALID,1004.66,VALID,0,VALID,102.525,VALID,0,VALID,23.6823,VALID,351,VALID,0,
2010-07-07, 00:55:04,VALID,1004.69,VALID,0,VALID,102.517,VALID,0.100563,VALID,23.6628,VALID,351,VALID,0,
2010-07-07, 00:56:04,VALID,1004.71,VALID,0,VALID,102.525,VALID,0,VALID,23.6628,VALID,351,VALID,0,
2010-07-07, 00:57:04,VALID,1004.7,VALID,0,VALID,102.532,VALID,0,VALID,23.6628,VALID,351,VALID,0,
2010-07-07, 00:58:04,VALID,1004.67,VALID,0,VALID,102.547,VALID,0,VALID,23.6434,VALID,351,VALID,0,
2010-07-07, 00:59:04,VALID,1004.63,VALID,0,VALID,102.563,VALID,0,VALID,23.6434,VALID,351,VALID,0,
2010-07-07, 01:00:04,VALID,1004.61,VALID,0,VALID,102.563,VALID,0,VALID,23.6044,VALID,351,VALID,0,
2010-07-07, 01:01:04,VALID,1004.56,VALID,0,VALID,102.57,VALID,0,VALID,23.585,VALID,351,VALID,0,
2010-07-07, 01:02:04,VALID,1004.51,VALID,0,VALID,102.563,VALID,0,VALID,23.585,VALID,351,VALID,0,
2010-07-07, 01:03:04,VALID,1004.51,VALID,0,VALID,102.547,VALID,0,VALID,23.5673,VALID,351,VALID,0.460938,
2010-07-07, 01:04:04,VALID,1004.49,VALID,0,VALID,102.54,VALID,0,VALID,23.546,VALID,351,VALID,0.414844,
2010-07-07, 01:05:04,VALID,1004.46,VALID,0,VALID,102.532,VALID,0,VALID,23.546,VALID,351,VALID,0.58125,
2010-07-07, 01:06:04,VALID,1004.49,VALID,0,VALID,102.54,VALID,0,VALID,23.5248,VALID,351,VALID,0.443359,
2010-07-07, 01:07:04,VALID,1004.48,VALID,0,VALID,102.525,VALID,0,VALID,23.5478,VALID,351,VALID,0.477344,
2010-07-07, 01:08:04,VALID,1004.48,VALID,0,VALID,102.532,VALID,0,VALID,23.546,VALID,351,VALID,0.425391,
2010-07-07, 01:09:04,VALID,1004.47,VALID,0,VALID,102.509,VALID,0.100563,VALID,23.546,VALID,351,VALID,0.332422,
2010-07-07, 01:10:04,VALID,1004.46,VALID,0,VALID,102.517,VALID,0.100563,VALID,23.5655,VALID,351,VALID,0.357031,
2010-07-07, 01:11:04,VALID,1004.47,VALID,0,VALID,102.486,VALID,0,VALID,23.546,VALID,351,VALID,0.281641,
2010-07-07, 01:12:04,VALID,1004.47,VALID,0,VALID,102.517,VALID,0,VALID,23.546,VALID,351,VALID,0.411719,
2010-07-07, 01:13:04,VALID,1004.44,VALID,0,VALID,102.502,VALID,0,VALID,23.5266,VALID,351,VALID,0.621094,
2010-07-07, 01:14:04,VALID,1004.44,VALID,0,VALID,102.502,VALID,0,VALID,23.5266,VALID,351,VALID,0.617188,
2010-07-07, 01:15:04,VALID,1004.45,VALID,0,VALID,102.494,VALID,0,VALID,23.5071,VALID,351,VALID,0.391016,
2010-07-07, 01:16:04,VALID,1004.44,VALID,0,VALID,102.479,VALID,0,VALID,23.546,VALID,351,VALID,0.159375,
2010-07-07, 01:17:04,VALID,1004.41,VALID,0,VALID,102.486,VALID,0.100563,VALID,23.546,VALID,351,VALID,0,
2010-07-07, 01:18:04,VALID,1004.4,VALID,0,VALID,102.494,VALID,0,VALID,23.5673,VALID,351,VALID,0,
2010-07-07, 01:19:04,VALID,1004.39,VALID,0,VALID,102.448,VALID,0,VALID,23.5655,VALID,351,VALID,0.295703,
2010-07-07, 01:20:04,VALID,1004.36,VALID,0,VALID,102.441,VALID,0.100563,VALID,23.585,VALID,357,VALID,0.383984,
2010-07-07, 01:21:04,VALID,1004.34,VALID,0,VALID,102.479,VALID,0,VALID,23.5655,VALID,63,VALID,0.576563,
2010-07-07, 01:22:04,VALID,1004.31,VALID,0,VALID,102.463,VALID,0,VALID,23.546,VALID,64,VALID,0.398047,
2010-07-07, 01:23:04,VALID,1004.29,VALID,0,VALID,102.463,VALID,0,VALID,23.546,VALID,64,VALID,0,
2010-07-07, 01:24:04,VALID,1004.27,VALID,0,VALID,102.494,VALID,0,VALID,23.546,VALID,64,VALID,0.175781,
2010-07-07, 01:25:04,VALID,1004.24,VALID,0,VALID,102.479,VALID,0,VALID,23.5266,VALID,64,VALID,0.119141,
2010-07-07, 01:26:04,VALID,1004.24,VALID,0,VALID,102.471,VALID,0,VALID,23.4859,VALID,64,VALID,0.0191406,
2010-07-07, 01:27:04,VALID,1004.22,VALID,0,VALID,102.479,VALID,0.100563,VALID,23.5053,VALID,64,VALID,0,
2010-07-07, 01:28:04,VALID,1004.26,VALID,0,VALID,102.433,VALID,0,VALID,23.5266,VALID,58,VALID,0,
2010-07-07, 01:29:04,VALID,1004.23,VALID,0,VALID,102.448,VALID,0,VALID,23.5266,VALID,22,VALID,0,
2010-07-07, 01:30:04,VALID,1004.24,VALID,0,VALID,102.441,VALID,0,VALID,23.5266,VALID,1,VALID,0,
2010-07-07, 01:31:04,VALID,1004.26,VALID,0,VALID,102.448,VALID,0,VALID,23.4859,VALID,1,VALID,0,
2010-07-07, 01:32:04,VALID,1004.2,VALID,0,VALID,102.418,VALID,0,VALID,23.5266,VALID,340,VALID,0,
2010-07-07, 01:33:04,VALID,1004.16,VALID,0,VALID,102.41,VALID,0,VALID,23.5266,VALID,340,VALID,0,
2010-07-07, 01:34:04,VALID,1004.15,VALID,0,VALID,102.387,VALID,0,VALID,23.546,VALID,340,VALID,0,
2010-07-07, 01:35:04,VALID,1004.16,VALID,0,VALID,102.41,VALID,0,VALID,23.546,VALID,340,VALID,0,
2010-07-07, 01:36:04,VALID,1004.11,VALID,0,VALID,102.395,VALID,0,VALID,23.546,VALID,340,VALID,0,
2010-07-07, 01:37:04,VALID,1004.09,VALID,0,VALID,102.402,VALID,0,VALID,23.5655,VALID,340,VALID,0,
2010-07-07, 01:38:04,VALID,1004.07,VALID,0,VALID,102.372,VALID,0.100563,VALID,23.5655,VALID,340,VALID,0,
2010-07-07, 01:39:04,VALID,1004.08,VALID,0,VALID,102.372,VALID,0,VALID,23.585,VALID,340,VALID,0,
2010-07-07, 01:40:04,VALID,1004.06,VALID,0,VALID,102.357,VALID,0.100563,VALID,23.585,VALID,340,VALID,0,
2010-07-07, 01:41:04,VALID,1004.02,VALID,0,VALID,102.349,VALID,0,VALID,23.6044,VALID,340,VALID,0,
2010-07-07, 01:42:04,VALID,1004.06,VALID,0,VALID,102.341,VALID,0,VALID,23.6239,VALID,340,VALID,0,
2010-07-07, 01:43:04,VALID,1004.02,VALID,0,VALID,102.319,VALID,0,VALID,23.6434,VALID,340,VALID,0,
2010-07-07, 01:44:04,VALID,1004.04,VALID,0,VALID,102.334,VALID,0.100563,VALID,23.6628,VALID,340,VALID,0,
2010-07-07, 01:45:04,VALID,1004.05,VALID,0,VALID,102.326,VALID,0,VALID,23.6628,VALID,340,VALID,0,
2010-07-07, 01:46:04,VALID,1004.03,VALID,0,VALID,102.334,VALID,0,VALID,23.661,VALID,340,VALID,0,
2010-07-07, 01:47:04,VALID,1004.03,VALID,0,VALID,102.303,VALID,0,VALID,23.7,VALID,340,VALID,0,
2010-07-07, 01:48:04,VALID,1004.03,VALID,0,VALID,102.334,VALID,0,VALID,23.7407,VALID,340,VALID,0,
2010-07-07, 01:49:04,VALID,1004.02,VALID,0,VALID,102.372,VALID,0,VALID,23.7425,VALID,340,VALID,0,
2010-07-07, 01:50:04,VALID,1004.02,VALID,0,VALID,102.402,VALID,0.100563,VALID,23.7017,VALID,340,VALID,0,
2010-07-07, 01:51:04,VALID,1003.98,VALID,0,VALID,102.456,VALID,0.100563,VALID,23.6416,VALID,340,VALID,0,
2010-07-07, 01:52:04,VALID,1003.97,VALID,0,VALID,102.479,VALID,0.100563,VALID,23.6221,VALID,340,VALID,0,
2010-07-07, 01:53:04,VALID,1003.97,VALID,0,VALID,102.471,VALID,0,VALID,23.6434,VALID,340,VALID,0,
2010-07-07, 01:54:04,VALID,1003.98,VALID,0,VALID,102.471,VALID,0.100563,VALID,23.6841,VALID,340,VALID,0,
2010-07-07, 01:55:04,VALID,1004.02,VALID,0,VALID,102.463,VALID,0.100563,VALID,23.7194,VALID,340,VALID,0,
2010-07-07, 01:56:04,VALID,1004.02,VALID,0,VALID,102.494,VALID,0,VALID,23.7017,VALID,340,VALID,0,
2010-07-07, 01:57:04,VALID,1004.04,VALID,0,VALID,102.494,VALID,0,VALID,23.6823,VALID,340,VALID,0,
2010-07-07, 01:58:04,VALID,1004.05,VALID,0,VALID,102.517,VALID,0,VALID,23.661,VALID,340,VALID,0,
2010-07-07, 01:59:04,VALID,1004.06,VALID,0,VALID,102.532,VALID,0.100563,VALID,23.6628,VALID,340,VALID,0,
2010-07-07, 02:00:04,VALID,1004.1,VALID,0,VALID,102.532,VALID,0,VALID,23.6434,VALID,340,VALID,0,
2010-07-07, 02:01:04,VALID,1004.11,VALID,0,VALID,102.54,VALID,0,VALID,23.6628,VALID,340,VALID,0,
2010-07-07, 02:02:04,VALID,1004.13,VALID,0,VALID,102.54,VALID,0.100563,VALID,23.6628,VALID,340,VALID,0,
2010-07-07, 02:03:04,VALID,1004.14,VALID,0,VALID,102.54,VALID,0.100563,VALID,23.6628,VALID,340,VALID,0,
2010-07-07, 02:04:04,VALID,1004.12,VALID,0,VALID,102.563,VALID,0,VALID,23.6434,VALID,340,VALID,0,
2010-07-07, 02:05:04,VALID,1004.1,VALID,0,VALID,102.586,VALID,0,VALID,23.6434,VALID,340,VALID,0,
2010-07-07, 02:06:04,VALID,1004.1,VALID,0,VALID,102.593,VALID,0.100563,VALID,23.6239,VALID,340,VALID,0,
2010-07-07, 02:07:04,VALID,1004.1,VALID,0,VALID,102.601,VALID,0.100563,VALID,23.6026,VALID,340,VALID,0,
2010-07-07, 02:08:04,VALID,1004.09,VALID,0,VALID,102.608,VALID,0,VALID,23.6434,VALID,340,VALID,0,
2010-07-07, 02:09:04,VALID,1004.06,VALID,0,VALID,102.601,VALID,0,VALID,23.6628,VALID,340,VALID,0,
2010-07-07, 02:10:04,VALID,1004.06,VALID,0,VALID,102.593,VALID,0.100563,VALID,23.6823,VALID,340,VALID,0,
2010-07-07, 02:11:04,VALID,1004.03,VALID,0,VALID,102.608,VALID,0,VALID,23.6823,VALID,340,VALID,0,
2010-07-07, 02:12:04,VALID,1004.05,VALID,0,VALID,102.616,VALID,0,VALID,23.6823,VALID,340,VALID,0,
2010-07-07, 02:13:04,VALID,1004.05,VALID,0,VALID,102.616,VALID,0,VALID,23.6805,VALID,340,VALID,0,
2010-07-07, 02:14:04,VALID,1004.04,VALID,0,VALID,102.578,VALID,0,VALID,23.7035,VALID,340,VALID,0,
2010-07-07, 02:15:04,VALID,1004.03,VALID,0,VALID,102.578,VALID,0,VALID,23.6823,VALID,340,VALID,0,
2010-07-07, 02:16:04,VALID,1004.06,VALID,0,VALID,102.608,VALID,0.100563,VALID,23.6823,VALID,340,VALID,0,
2010-07-07, 02:17:04,VALID,1004.03,VALID,0,VALID,102.57,VALID,0,VALID,23.7017,VALID,340,VALID,0,
2010-07-07, 02:18:04,VALID,1004.02,VALID,0,VALID,102.555,VALID,0,VALID,23.7017,VALID,340,VALID,0,
2010-07-07, 02:19:04,VALID,1004,VALID,0,VALID,102.57,VALID,0,VALID,23.7407,VALID,340,VALID,0,
2010-07-07, 02:20:04,VALID,1004.01,VALID,0,VALID,102.555,VALID,0,VALID,23.7407,VALID,340,VALID,0,
2010-07-07, 02:21:04,VALID,1004.01,VALID,0,VALID,102.547,VALID,0,VALID,23.7407,VALID,340,VALID,0,
2010-07-07, 02:22:04,VALID,1004,VALID,0,VALID,102.578,VALID,0,VALID,23.7212,VALID,340,VALID,0,
2010-07-07, 02:23:04,VALID,1003.97,VALID,0,VALID,102.616,VALID,0,VALID,23.7017,VALID,340,VALID,0,
2010-07-07, 02:24:04,VALID,1003.99,VALID,0,VALID,102.616,VALID,0,VALID,23.7017,VALID,340,VALID,0,
2010-07-07, 02:25:04,VALID,1003.99,VALID,0,VALID,102.608,VALID,0,VALID,23.723,VALID,340,VALID,0,
2010-07-07, 02:26:04,VALID,1003.96,VALID,0,VALID,102.631,VALID,0.100563,VALID,23.661,VALID,50,VALID,0,
2010-07-07, 02:27:04,VALID,1003.98,VALID,0,VALID,102.631,VALID,0,VALID,23.6823,VALID,64,VALID,0,
2010-07-07, 02:28:04,VALID,1003.97,VALID,0,VALID,102.639,VALID,0.100563,VALID,23.6628,VALID,64,VALID,0,
2010-07-07, 02:29:04,VALID,1003.94,VALID,0,VALID,102.639,VALID,0,VALID,23.6628,VALID,110,VALID,0,
2010-07-07, 02:30:04,VALID,1003.92,VALID,0,VALID,102.639,VALID,0,VALID,23.6823,VALID,84,VALID,0,
2010-07-07, 02:31:04,VALID,1003.87,VALID,0,VALID,102.647,VALID,0,VALID,23.6416,VALID,82,VALID,0,
2010-07-07, 02:32:04,VALID,1003.86,VALID,0,VALID,102.654,VALID,0,VALID,23.6823,VALID,52,VALID,0,
2010-07-07, 02:33:04,VALID,1003.88,VALID,0,VALID,102.624,VALID,0,VALID,23.6416,VALID,51,VALID,0,
2010-07-07, 02:34:04,VALID,1003.86,VALID,0,VALID,102.624,VALID,0,VALID,23.6823,VALID,51,VALID,0,
2010-07-07, 02:35:04,VALID,1003.91,VALID,0,VALID,102.631,VALID,0.100563,VALID,23.6823,VALID,87,VALID,0,
2010-07-07, 02:36:04,VALID,1003.89,VALID,0,VALID,102.608,VALID,0,VALID,23.6823,VALID,98,VALID,0,
2010-07-07, 02:37:04,VALID,1003.88,VALID,0,VALID,102.578,VALID,0,VALID,23.7035,VALID,98,VALID,0,
2010-07-07, 02:38:04,VALID,1003.87,VALID,0,VALID,102.578,VALID,0,VALID,23.661,VALID,98,VALID,0,
2010-07-07, 02:39:04,VALID,1003.9,VALID,0,VALID,102.563,VALID,0,VALID,23.6823,VALID,98,VALID,0,
2010-07-07, 02:40:04,VALID,1003.88,VALID,0,VALID,102.57,VALID,0,VALID,23.7035,VALID,98,VALID,0,
2010-07-07, 02:41:04,VALID,1003.86,VALID,0,VALID,102.54,VALID,0,VALID,23.6823,VALID,98,VALID,0,
2010-07-07, 02:42:04,VALID,1003.88,VALID,0,VALID,102.517,VALID,0,VALID,23.7017,VALID,96,VALID,0,
2010-07-07, 02:43:04,VALID,1003.92,VALID,0,VALID,102.509,VALID,0,VALID,23.7017,VALID,95,VALID,0,
2010-07-07, 02:44:04,VALID,1003.92,VALID,0,VALID,102.486,VALID,0,VALID,23.7017,VALID,89,VALID,0,
2010-07-07, 02:45:04,VALID,1003.92,VALID,0,VALID,102.486,VALID,0,VALID,23.7212,VALID,73,VALID,0.387891,
2010-07-07, 02:46:04,VALID,1003.92,VALID,0,VALID,102.471,VALID,0,VALID,23.7212,VALID,72,VALID,0.301562,
2010-07-07, 02:47:04,VALID,1003.9,VALID,0,VALID,102.463,VALID,0.100563,VALID,23.7389,VALID,95,VALID,0.156641,
2010-07-07, 02:48:04,VALID,1003.88,VALID,0,VALID,102.456,VALID,0,VALID,23.7778,VALID,95,VALID,0.676562,
2010-07-07, 02:49:04,VALID,1003.89,VALID,0,VALID,102.402,VALID,0.100563,VALID,23.8185,VALID,356,VALID,0.202344,
2010-07-07, 02:50:04,VALID,1003.86,VALID,0,VALID,102.387,VALID,0,VALID,23.838,VALID,47,VALID,0.298047,
2010-07-07, 02:51:04,VALID,1003.86,VALID,0,VALID,102.372,VALID,0,VALID,23.914,VALID,66,VALID,1.35078,
2010-07-07, 02:52:04,VALID,1003.87,VALID,0,VALID,102.235,VALID,0,VALID,24.0308,VALID,89,VALID,0.63125,
2010-07-07, 02:53:04,VALID,1003.88,VALID,0,VALID,101.952,VALID,0,VALID,24.1105,VALID,87,VALID,0.3375,
2010-07-07, 02:54:04,VALID,1003.88,VALID,0,VALID,101.609,VALID,0.100563,VALID,24.1689,VALID,67,VALID,0.245312,
2010-07-07, 02:55:04,VALID,1003.85,VALID,0,VALID,101.319,VALID,0,VALID,24.2273,VALID,70,VALID,0.505078,
2010-07-07, 02:56:04,VALID,1003.79,VALID,0,VALID,100.938,VALID,0,VALID,24.3052,VALID,71,VALID,0.5,
2010-07-07, 02:57:04,VALID,1003.77,VALID,0,VALID,100.541,VALID,0,VALID,24.3617,VALID,43,VALID,0.823828,
2010-07-07, 02:58:04,VALID,1003.77,VALID,0,VALID,100.038,VALID,0,VALID,24.459,VALID,60,VALID,0.4625,
2010-07-07, 02:59:04,VALID,1003.77,VALID,0,VALID,92.4239,VALID,0,VALID,24.5796,VALID,62,VALID,1.04141,
2010-07-07, 03:00:04,VALID,1003.75,VALID,0,VALID,90.4709,VALID,0.100563,VALID,24.6556,VALID,41,VALID,0.875,
2010-07-07, 03:01:04,VALID,1003.74,VALID,0,VALID,89.5478,VALID,0,VALID,24.6964,VALID,36,VALID,0.414844,
2010-07-07, 03:02:04,VALID,1003.78,VALID,0,VALID,89.1969,VALID,0,VALID,24.6964,VALID,60,VALID,0.236328,
2010-07-07, 03:03:04,VALID,1003.8,VALID,0,VALID,89.0748,VALID,0,VALID,24.6945,VALID,82,VALID,0.159375,
2010-07-07, 03:04:04,VALID,1003.77,VALID,0,VALID,89.1206,VALID,0,VALID,24.6964,VALID,60,VALID,0.482812,
2010-07-07, 03:05:04,VALID,1003.76,VALID,0,VALID,89.174,VALID,0,VALID,24.6769,VALID,41,VALID,0.123828,
2010-07-07, 03:06:04,VALID,1003.77,VALID,0,VALID,89.113,VALID,0,VALID,24.6769,VALID,38,VALID,0.314453,
2010-07-07, 03:07:04,VALID,1003.74,VALID,0,VALID,89.0519,VALID,0,VALID,24.6769,VALID,38,VALID,0.20625,
2010-07-07, 03:08:04,VALID,1003.75,VALID,0,VALID,89.1587,VALID,0,VALID,24.6769,VALID,38,VALID,0.274219,
2010-07-07, 03:09:04,VALID,1003.75,VALID,0,VALID,88.9756,VALID,0,VALID,24.6574,VALID,22,VALID,0.477344,
2010-07-07, 03:10:04,VALID,1003.72,VALID,0,VALID,88.9451,VALID,0,VALID,24.6769,VALID,35,VALID,0.256641,
2010-07-07, 03:11:04,VALID,1003.76,VALID,0,VALID,88.8688,VALID,0,VALID,24.6769,VALID,34,VALID,0.58125,
2010-07-07, 03:12:04,VALID,1003.74,VALID,0,VALID,88.8154,VALID,0,VALID,24.6556,VALID,32,VALID,0.501562,
2010-07-07, 03:13:04,VALID,1003.74,VALID,0,VALID,88.9909,VALID,0,VALID,24.6574,VALID,32,VALID,0.105469,
2010-07-07, 03:14:04,VALID,1003.73,VALID,0,VALID,89.1435,VALID,0,VALID,24.638,VALID,26,VALID,0.153125,
2010-07-07, 03:15:04,VALID,1003.73,VALID,0,VALID,89.3571,VALID,0,VALID,24.638,VALID,106,VALID,0.280078,
2010-07-07, 03:16:04,VALID,1003.71,VALID,0,VALID,89.4028,VALID,0,VALID,24.6361,VALID,77,VALID,0.455469,
2010-07-07, 03:17:04,VALID,1003.71,VALID,0,VALID,89.6012,VALID,0,VALID,24.6556,VALID,101,VALID,0.496875,
2010-07-07, 03:18:04,VALID,1003.66,VALID,0,VALID,89.6927,VALID,0,VALID,24.675,VALID,99,VALID,0.619531,
2010-07-07, 03:19:04,VALID,1003.66,VALID,0,VALID,89.6851,VALID,0,VALID,24.6556,VALID,101,VALID,0.942187,
2010-07-07, 03:20:04,VALID,1003.64,VALID,0,VALID,89.7156,VALID,0,VALID,24.6556,VALID,93,VALID,0.795703,
2010-07-07, 03:21:04,VALID,1003.63,VALID,0,VALID,89.914,VALID,0,VALID,24.6361,VALID,62,VALID,0.657422,
2010-07-07, 03:22:04,VALID,1003.65,VALID,0,VALID,90.036,VALID,0,VALID,24.5972,VALID,86,VALID,0.967969,
2010-07-07, 03:23:04,VALID,1003.67,VALID,0,VALID,90.242,VALID,0,VALID,24.6166,VALID,70,VALID,0.539453,
2010-07-07, 03:24:04,VALID,1003.68,VALID,0,VALID,90.2725,VALID,0,VALID,24.6361,VALID,82,VALID,1.18828,
2010-07-07, 03:25:04,VALID,1003.67,VALID,0,VALID,90.3565,VALID,0,VALID,24.6361,VALID,76,VALID,0.360156,
2010-07-07, 03:26:04,VALID,1003.68,VALID,0,VALID,90.4938,VALID,0,VALID,24.6574,VALID,8,VALID,0.578906,
2010-07-07, 03:27:04,VALID,1003.66,VALID,0,VALID,90.7455,VALID,0,VALID,24.6166,VALID,37,VALID,0.544141,
2010-07-07, 03:28:04,VALID,1003.66,VALID,0,VALID,90.8295,VALID,0,VALID,24.6556,VALID,22,VALID,0.510156,
2010-07-07, 03:29:04,VALID,1003.67,VALID,0,VALID,91.0736,VALID,0,VALID,24.6945,VALID,26,VALID,0.349609,
2010-07-07, 03:30:04,VALID,1003.65,VALID,0,VALID,90.7074,VALID,0,VALID,24.714,VALID,42,VALID,0.750781,
2010-07-07, 03:31:04,VALID,1003.67,VALID,0,VALID,90.3565,VALID,0,VALID,24.714,VALID,37,VALID,0.0121094,
2010-07-07, 03:32:04,VALID,1003.66,VALID,0,VALID,90.1734,VALID,0,VALID,24.714,VALID,37,VALID,0.335547,
2010-07-07, 03:33:04,VALID,1003.65,VALID,0,VALID,90.1581,VALID,0,VALID,24.6964,VALID,57,VALID,0.486719,
2010-07-07, 03:34:04,VALID,1003.62,VALID,0,VALID,90.3183,VALID,0,VALID,24.6556,VALID,80,VALID,0.227344,
2010-07-07, 03:35:04,VALID,1003.59,VALID,0,VALID,90.4327,VALID,0,VALID,24.6361,VALID,80,VALID,0.110156,
2010-07-07, 03:36:04,VALID,1003.62,VALID,0,VALID,90.6692,VALID,0,VALID,24.6185,VALID,80,VALID,0,
2010-07-07, 03:37:04,VALID,1003.6,VALID,0,VALID,91.1193,VALID,0,VALID,24.5582,VALID,81,VALID,0.423828,
2010-07-07, 03:38:04,VALID,1003.6,VALID,0,VALID,92.6375,VALID,0,VALID,24.5212,VALID,75,VALID,0.473437,
2010-07-07, 03:39:04,VALID,1003.6,VALID,0,VALID,94.9719,VALID,0,VALID,24.4414,VALID,86,VALID,0.738281,
2010-07-07, 03:40:04,VALID,1003.59,VALID,0,VALID,97.1843,VALID,0.100563,VALID,24.383,VALID,84,VALID,0.433203,
2010-07-07, 03:41:04,VALID,1003.6,VALID,0,VALID,98.7253,VALID,0,VALID,24.3052,VALID,76,VALID,0.475,
2010-07-07, 03:42:04,VALID,1003.62,VALID,0,VALID,99.8392,VALID,0,VALID,24.2875,VALID,101,VALID,0.692578,
2010-07-07, 03:43:04,VALID,1003.64,VALID,0,VALID,100.427,VALID,0,VALID,24.2662,VALID,89,VALID,0.48125,
2010-07-07, 03:44:04,VALID,1003.64,VALID,0,VALID,100.709,VALID,0,VALID,24.2662,VALID,90,VALID,0.739844,
2010-07-07, 03:45:05,VALID,1003.68,VALID,0,VALID,100.884,VALID,0,VALID,24.3052,VALID,93,VALID,0.753125,
2010-07-07, 03:46:05,VALID,1003.7,VALID,0,VALID,100.884,VALID,0,VALID,24.3636,VALID,94,VALID,0.785937,
2010-07-07, 03:47:05,VALID,1003.72,VALID,0,VALID,100.785,VALID,0,VALID,24.4025,VALID,86,VALID,0.883984,
2010-07-07, 03:48:05,VALID,1003.73,VALID,0,VALID,100.594,VALID,0,VALID,24.4628,VALID,93,VALID,1.10312,
2010-07-07, 03:49:05,VALID,1003.74,VALID,0,VALID,100.144,VALID,0,VALID,24.4998,VALID,77,VALID,0.901953,
2010-07-07, 03:50:05,VALID,1003.76,VALID,0,VALID,99.3433,VALID,0,VALID,24.5601,VALID,108,VALID,0.371094,
2010-07-07, 03:51:05,VALID,1003.77,VALID,0,VALID,98.2676,VALID,0,VALID,24.5972,VALID,69,VALID,0.653906,